Weather in Bogatynia

Poland     50°54′07″N   14°57′42″E
temp.,
°C
wind,
m/s
gust,
m/s
humid.,
%
clouds,
%
prec.,
mm/h
press.,
hPa
HPBL,
m
27 october, wed
wed2723:00+9ssw4880100 0.1 1024255
02:00+7ssw3592100 0.1 102488
05:00+6s4592100 0.0 102591
08:00+6ssw3692100 0.0 102597
11:00+11ssw477188 0.0 1026379
14:00+13ssw566195 0.0 1025767
17:00+11s4870100 0.0 1024239
20:00+9s357630 0.0 102563
28 october, thu
thu2823:00+8ssw357785 0.0 102665
02:00+8s4577100 0.0 102482
05:00+7ssw34835 0.0 102462
08:00+6s34835 0.0 102463
11:00+13s48575 0.0 1023396
14:00+15s47435 0.0 1021603
17:00+12s47615 0.0 1020149
20:00+8sse47675 0.0 1020147
29 october, fri
fri2923:00+8s513565 0.0 1020336
02:00+9s6155023 0.0 1018492
05:00+7s5145514 0.0 1017408
08:00+6s410595 0.0 1017256
11:00+11s6134730 0.0 1016599
14:00+13s613457 0.0 1015732
17:00+11s48505 0.0 1014304
20:00+9s5145551 0.0 1014384
30 october, sat
sat3023:00+9s6165697 0.0 1014554
02:00+8s51366100 0.0 1015368
05:00+6ssw5117527 0.0 1016242
08:00+5ssw510805 0.0 1017176
11:00+11ssw586096 0.0 1017307
14:00+13ssw5753100 0.0 1017419
17:00+10ssw356897 0.0 1017117
20:00+7s347417 0.0 101852
31 october, sun
sun3123:00+7s3574100 0.0 101689
02:00+7s3477100 0.0 101471
04:00+7sse3774100 0.0 1011192
07:00+8s6157164 0.0 1009505
10:00+11s81568100 0.0 1008530
13:00+12s7146364 0.0 1007527
16:00+12s714675 0.0 1006483
19:00+12s81666100 0.0 1005457